Retour au catalogue

KUIPER-00549

ActifCommunicationsVLEO
NORAD 69616·PAYLOAD·🇺🇸 United States

Lancé Jun 17, 2026 depuis Guiana Space Centre

Loading…

Prochains Passages (prochaines 24 heures)

TLE

FraisSource: CelesTrak SupGP

Époque: Sep 14, 2026, 21:47 UTC

1 69616C 26140AA  26257.90806713 -.01155500  00000+0 -64740-1 0  2574
2 69616  51.8917 325.8874 0005227 228.9383  55.9906 15.14022730    19

Suivez KUIPER-00549 en temps réel avec AllMySat

Download on the App Store